Terminal Aerodrome Forecast
Issued by NWS

Home | Current Version | Previous Version | Text Only | Print | Product List | Glossary On
Versions: 1 2 3 4 5 6 7 8 9 10 11 12 13 14 15 16
000
FTUS43 KJKL 020524 AAA
TAFSJS
TAF AMD
KSJS 020524Z 0205/0306 34006KT 5SM -DZ OVC003
     FM021100 VRB03KT P6SM OVC004
     FM021400 VRB03KT P6SM SCT010 BKN022
     FM021700 VRB03KT P6SM FEW020 SCT100
     FM022100 VRB03KT P6SM FEW030 SCT250=

USA.gov is the U.S. government's official web portal to all federal, state and local government web resources and services.